Location: A�t �Alla
(31.0417°N, 8.9813°W)
Time: 22:15:33
(UTC+00:00)

Daily predictions for brighter satellites

Satellite Brightness Start Highest point End
(mag) Time Altitude Azimuth Time Altitude Azimuth Time Altitude Azimuth
Cosmos 2112 Rocket 4.5 18:43:01 10° NNW 18:48:12 69° WSW 18:53:25 10° S
Cosmos 2150 Rocket 4.2 18:43:06 10° S 18:48:17 55° ESE 18:53:35 10° NNE
Cosmos 1680 Rocket 4.5 18:44:57 10° NNW 18:50:03 54° WSW 18:55:09 10° S
Cosmos 1464 Rocket 4.3 18:44:23 10° SSE 18:50:05 42° E 18:55:50 10° NNE
GOES 2 Rocket 3.2 18:46:36 10° WSW 18:51:05 59° S 18:55:11 10° E
CZ-2C R/B 4.1 18:46:45 10° SE 18:51:06 27° ENE 18:55:38 10° NNE
Cosmos 1782 Rocket 4.1 18:46:49 10° SSW 18:51:10 65° W 18:55:35 10° N
Cosmos 1603 3.9 18:46:59 10° NNW 18:52:37 80° WSW 18:58:12 10° SSE
Cosmos 1867 3.9 18:47:25 10° NNW 18:52:38 45° ENE 18:57:49 10° SE
Okean-O 3.0 18:48:34 10° SE 18:52:46 44° ENE 18:56:58 10° N
GP-B 4.0 18:57:17 10° N 19:01:37 55° W 19:05:56 10° SSW
ARGOS 4.4 19:02:58 10° ESE 19:06:49 20° ENE 19:10:40 10° NNE
MOS 1 Rocket 3.7 19:04:02 10° NNE 19:07:53 32° E 19:11:42 10° SSE
Cosmos 2151 Rocket 3.8 19:07:49 10° SSE 19:12:04 47° E 19:16:22 10° NNE
H-2A R/B 1.3 19:13:36 10° WSW 19:15:12 38° S 19:16:58 17° ESE
Cosmos 1891 Rocket 4.4 19:10:06 10° S 19:16:14 80° E 19:22:18 10° N
CZ-2C R/B 3.8 19:14:05 10° NE 19:18:25 23° E 19:22:45 10° SSE
Shenzhou-11 Module 4.0 19:17:27 10° WNW 19:18:39 13° NNW 19:19:50 10° NNE
Cosmos 1975 Rocket 3.5 19:17:25 10° NNW 19:21:41 64° W 19:25:56 10° S
Meteor 1-15 Rocket 4.5 19:17:14 10° SSE 19:22:31 45° E 19:27:55 10° NNE
DMSP B5D1-3 4.5 19:17:47 10° NNE 19:22:54 86° ESE 19:28:00 10° SSW
Cosmos 1805 4.2 19:20:08 10° SSE 19:23:22 25° E 19:26:37 10° NE
ATLAS 5 CENTAUR R/B 3.3 19:23:59 10° NNW 19:28:07 75° ENE 19:44:09 10° SE
Ariane Rocket 4.4 19:28:05 17° ENE 19:28:46 18° ENE 19:32:05 10° NNE
Milstar 3 Cent rocket 2.9 19:19:25 10° WSW 19:28:52 61° S 19:32:39 21° E
H-2A R/B 2.2 19:25:12 10° SE 19:29:53 45° ENE 19:34:41 10° N
Cosmos 1844 Rocket 3.8 19:35:46 10° SW 19:41:04 46° WNW 19:46:26 10° N
USA 234 4.0 19:38:13 20° E 19:41:18 29° SE 19:46:50 10° S
Nadezhda 4 Rocket 4.0 19:36:24 10° N 19:42:23 53° E 19:48:21 10° SSE
CZ-2C R/B 0.8 19:40:30 10° WNW 19:44:17 88° SSW 19:45:20 43° ESE
Cosmos 1707 3.3 19:40:57 10° NNW 19:44:43 58° W 19:48:28 10° S
Cosmos 2278 Rocket 2.9 19:40:33 10° SSE 19:45:19 29° ESE 19:46:16 27° E
Cosmos 2034 Rocket 4.1 19:44:42 10° S 19:51:04 80° W 19:57:26 10° N
Exosat Rocket 4.0 19:47:25 10° SSW 19:53:27 67° WNW 19:58:28 10° NNE
Okean 1 Rocket 3.0 19:51:19 10° S 19:55:44 68° E 20:00:12 10° NNE
NOSS 3-4 (A) 3.6 19:50:23 10° SW 19:56:12 71° WNW 20:02:16 10° NNE
NOSS 3-4 (C) 3.5 19:50:29 10° SW 19:56:19 72° WNW 20:02:22 10° NNE
NOSS 3-2 (C) 4.4 19:52:24 10° NNW 20:00:00 48° ENE 20:03:38 32° ESE
Meteor 2-5 Rocket 4.2 19:55:11 10° N 20:00:28 37° ENE 20:00:47 37° E
Cosmos 1766 3.0 20:01:09 10° S 20:05:01 77° E 20:08:58 10° N
Meteor 2-13 Rocket 4.5 20:00:27 10° N 20:06:27 53° E 20:08:35 37° SE
YAOGAN 1 4.5 20:03:33 10° SSW 20:07:20 30° W 20:11:10 10° NW
CSL-04 Rocket 4.2 20:03:32 10° S 20:08:51 60° W 20:14:16 10° NNW
Cosmos 1025 Rocket 4.4 20:11:49 10° NNW 20:15:55 39° W 20:20:00 10° SSW
ATLAS 2AS CENTAUR R/B 3.4 20:10:40 10° SW 20:18:25 64° WNW 20:26:20 10° NNE
Cosmos 1634 Rocket 3.8 20:12:38 10° S 20:18:45 72° E 20:24:54 10° N
CENTAUR R/B 3.3 20:10:38 10° NNW 20:18:58 61° ENE 20:22:00 42° ESE
ATLAS 3B R/B 4.1 20:25:25 10° N 20:29:50 22° NE 20:29:50 22° NE
Gbstr 26 Del rocket 4.0 20:26:42 10° SW 20:33:10 79° SE 20:35:23 49° NE
Cosmos 1674 4.1 20:32:17 10° NNW 20:35:09 37° WNW 20:35:09 37° WNW
Cosmos 2195 Rocket 4.4 20:37:59 10° N 20:44:12 86° W 20:44:44 76° SSW
Cosmos 1627 Rocket 4.4 20:39:36 10° N 20:46:02 88° E 20:46:09 86° SE
ARGOS 4.3 20:42:59 17° SSW 20:46:43 39° W 20:51:44 10° NNW
Cosmos 2026 Rocket 3.9 20:40:44 10° N 20:46:52 81° NE 20:46:52 81° NE
Cosmos 1092 Rocket 4.1 20:41:09 10° N 20:47:19 70° W 20:49:00 49° SSW
USA 238 DEB 4.2 20:40:50 10° NW 20:48:05 61° WSW 20:50:45 40° S
USA 238 4.2 20:40:56 10° NW 20:48:11 62° WSW 20:50:48 41° S
CZ-2C R/B 4.1 20:53:35 10° N 20:58:41 37° WNW 21:03:48 10° SW
ATLAS 2A CENTAUR R/B 4.5 19:59:17 10° W 21:05:10 67° SSW 21:09:36 51° SSE
Ariane Rocket 4.3 21:08:19 37° WNW 21:08:19 37° WNW 21:12:07 10° NNW
USA 234 3.9 21:25:40 51° W 21:25:40 51° W 21:30:49 10° WSW
Cosmos 2278 Rocket 3.9 21:24:20 10° SW 21:33:01 15° N 21:34:10 10° N
